User: anonymous   Login
Location: Albuquerque Trailhead
(34.7934°N, 106.3736°W)
Time: 07:20:50
(UTC+00:00)
Language:

Delta 128 - Orbit

View from above orbital plane
View from above orbital plane
View from above satellite
View from above satellite

Ground track
Ground track

The orbit data is extracted from the following two-line orbital elements,

1  9786U 77005B   21265.51367180  .00000252  00000-0  42637-4 0  9991
2  9786  28.0122 302.9279 0416495 235.6883 120.3573 13.94647808270531
Epoch (UTC): 22 September 2021 12:19:41
Eccentricity: 0.0416495
inclination: 28.0122°
perigee height: 609 km
apogee height: 1216 km
right ascension of ascending node: 302.9279°
argument of perigee: 235.6883°
revolutions per day: 13.94647808
mean anomaly at epoch: 120.3573°
orbit number at epoch: 27053

The dashed part of the orbit path shows where the satellite is in the earth's shadow,  

DLR